Regional Weather Roundup
Issued by NWS

Home | Current Version | Previous Version | Text Only | Print | Product List | Glossary Off
Versions: 1 2 3 4 5 6 7 8 9 10 11 12 13 14 15 16 17 18 19 20 21 22 23 24 25 26 27 28 29 30 31 32 33 34 35 36 37 38 39 40 41 42 43 44 45 46 47 48 49 50

000
ASUS45 KBOI 281910
RWRID
WEATHER ROUNDUP FOR IDAHO
NATIONAL WEATHER SERVICE BOISE ID
100 PM MDT SAT MAR 28 2015

NOTE: "FAIR" INDICATES FEW OR NO CLOUDS BELOW 12000 FEET
WITH NO SIGNIFICANT WEATHER AND/OR OBSTRUCTIONS TO VISIBILITY

IDZ012-014-282000-
SOUTHWEST IDAHO


CITY           SKY/WX    TMP DP  RH WIND       PRES   REMARKS
BOISE          SUNNY     56  30  37 N16G26    30.30R
CALDWELL       MOSUNNY   57  30  35 W13       30.32R
MOUNTAIN HOME  MOSUNNY   58  28  32 NW21G29   30.29R
$$

IDZ016-017-282000-
SOUTHCENTRAL IDAHO


CITY           SKY/WX    TMP DP  RH WIND       PRES   REMARKS
BURLEY         LGT RAIN  55  31  39 W25G39    30.21R
JEROME         SUNNY     55  24  30 W39G48    30.23R
TWIN FALLS     MOSUNNY   56  30  37 W29G43    30.25R
$$

IDZ019>023-282000-
SOUTHEAST IDAHO


CITY           SKY/WX    TMP DP  RH WIND       PRES   REMARKS
IDAHO FALLS    PTSUNNY   63  34  33 SW35G51   30.06R
POCATELLO      MOSUNNY   62  35  36 W37G49    30.13R
REXBURG        MOSUNNY   62  31  31 SW40G51   30.00F
$$

IDZ006-010-011-018-031-032-282000-
CENTRAL IDAHO MOUNTAINS


CITY           SKY/WX    TMP DP  RH WIND       PRES   REMARKS
MCCALL         SUNNY     47  22  37 W13G20    30.22S
HAILEY         MOSUNNY   55  30  38 NW7       30.12S
STANLEY          N/A     45  23  42 W9G16     30.23R
SALMON         CLOUDY   N/A N/A N/A NE7       30.13F
CHALLIS        MOSUNNY   53  20  27 NW16G35   30.14R
$$

IDZ002-004-006-007-026-282000-
NORTHERN IDAHO


CITY           SKY/WX    TMP DP  RH WIND       PRES   REMARKS
LEWISTON       SUNNY     59  34  39 W21G32    30.21R
LOWELL           N/A     55  46  71 N5        30.20F
COEUR D`ALENE  MOSUNNY   54  39  58 SW28G35   30.10R
MULLAN PASS    LGT SNOW  30  30 100 W9G20     30.05R VSB 3/4 WCI  22
$$



USA.gov is the U.S. government's official web portal to all federal, state and local government web resources and services.